Flag for Canada Weather past 2 weeks in Toronto, Ontario, Canada

Now
63 °F

Partly sunny.


Feels Like: 63 °F
Forecast: 55 / 70 °F
Wind: 20 mph from Northwest

Location: Toronto Pearson International Airport

Current Time: Jul 28, 2014 at 9:00:30 PM

Latest Report: Jul 28, 2014 at 8:00 PM


Visibility: 15 mi

Pressure: 29.86 "Hg

Humidity: 59%

Dew point: 48 °F

Location of TorontoLocation

Historic Weather in Toronto — Graph

°F

Toronto temperature yesterday

Maximum temperature yesterday: 84 °F (at 3:00 PM)
Minimum temperature yesterday: 64 °F (at 9:57 PM)
Average temperature yesterday: 74 °F

Past Weeks' High & Low Weather Summary

 TemperatureHumidityPressure
High86 °F (Jul 22, 7:00 PM)100% (Jul 19, 9:00 PM)30.24 "Hg (Jul 19, 9:00 PM)
Low52 °F (Jul 17, 5:00 AM)29% (Jul 18, 6:00 PM)29.60 "Hg (Jul 28, 3:52 AM)
Average68 °F67%29.95 "Hg
* Reported Jul 13 7:00 PM — Jul 28 7:00 PM, Toronto, Weather by CustomWeather, © 2014

Note: Actual official high and low records may vary slightly from our data, if they occured in-between our weather recording intervals... More about our weather records

Advertising

Toronto weather history for previous 24 hours

 ConditionsComfort  
Time TempWeatherWind HumidityBarometerVisibility
7:00 PM
Jul 28
64 °FPartly sunny.18 mph60%29.84 "Hg15 mi
6:00 PM64 °FPartly sunny.20 mph56%29.83 "Hg15 mi
4:00 PM68 °FPartly sunny.21 mph56%29.79 "Hg15 mi
3:00 PM70 °FBroken clouds.18 mph57%29.77 "Hg15 mi
2:00 PM70 °FPartly sunny.18 mph57%29.76 "Hg15 mi
1:00 PM68 °FPartly sunny.20 mph60%29.75 "Hg15 mi
12:00 PM63 °FPartly sunny.18 mph73%29.75 "Hg15 mi
11:00 AM61 °FMore clouds than sun.16 mph83%29.74 "Hg15 mi
10:00 AM59 °FLight rain. Mostly cloudy.16 mph88%29.72 "Hg15 mi
9:00 AM61 °FLight rain. Mostly cloudy.22 mph88%29.70 "Hg15 mi
8:00 AM61 °FLight rain. Mostly cloudy.15 mph88%29.67 "Hg12 mi
7:00 AM63 °FLight rain. Mostly cloudy.13 mph88%29.65 "Hg8 mi
6:00 AM63 °FLight rain. Mostly cloudy.14 mph88%29.63 "Hg4 mi
5:00 AM63 °FRain. Mostly cloudy.15 mph94%29.61 "Hg6 mi
4:00 AM64 °FRain. Overcast.14 mph88%29.60 "Hg6 mi
3:52 AM64 °FLight rain. Overcast.13 mph94%29.60 "Hg6 mi
3:00 AM64 °FHeavy rain. Overcast.7 mph94%29.61 "Hg4 mi
2:48 AM64 °FHeavy rain. Overcast.6 mph94%29.61 "Hg4 mi
2:00 AM64 °FLight rain. Overcast.5 mph94%29.62 "Hg15 mi
1:00 AM64 °FLight rain. Mostly cloudy.9 mph88%29.62 "Hg15 mi
12:00 AM64 °FLots of rain. Overcast.9 mph88%29.65 "Hg6 mi
11:00 PM
Jul 27
64 °FThunderstorms. Overcast.10 mph88%29.67 "Hg6 mi
10:00 PM64 °FSprinkles. Mostly cloudy.12 mph88%29.66 "Hg15 mi
9:57 PM64 °FSprinkles. Mostly cloudy.12 mph88%29.66 "Hg15 mi
9:00 PM66 °FThunderstorms. Overcast.5 mph88%29.65 "Hg5 mi
Weather by CustomWeather, © 2014

See weather overviewHow to use our weather pages